User: anonymous   Login
Location: Unspecified
(0.0000°N, 0.0000°E)
Time: 03:50:18
(UTC+00:00)
Language:

JASON 3 - Orbit

View from above orbital plane
View from above orbital plane
View from above satellite
View from above satellite

Ground track
Ground track

The orbit data is extracted from the following two-line orbital elements,

1 41240U 16002A   18292.54652162 -.00000058 +00000-0 +12648-4 0  9992
2 41240 066.0410 185.7302 0007524 266.8988 093.1166 12.80929869128822
Epoch (UTC): 19 October 2018 13:06:59
Eccentricity: 0.0007524
inclination: 66.0410°
perigee height: 1332 km
apogee height: 1343 km
right ascension of ascending node: 185.7302°
argument of perigee: 266.8988°
revolutions per day: 12.80929869
mean anomaly at epoch: 93.1166°
orbit number at epoch: 12882

The dashed part of the orbit path shows where the satellite is in the earth's shadow,  

DLR